{"data":{"norad_id":59122,"epoch":"2026-09-22T22:10:52.091328Z","epoch_age_seconds":48516,"freshness":"FRESH","line1":"1 59122U 24043AA  26265.92421402  .00007709  00000+0  26942-3 0  9995","line2":"2 59122  97.5574  47.7466 0004184 240.6303 119.4519 15.29839865142213","mean_motion":15.29839865,"eccentricity":0.0004184,"inclination_deg":97.5574,"raan_deg":47.7466,"arg_perigee_deg":240.6303,"mean_anomaly_deg":119.4519,"bstar":0.00026942,"rev_number":14221,"period_min":94.127498762754,"perigee_km":473.4226860541,"apogee_km":479.15847105184,"semimajor_km":6854.427578553,"source":"CELESTRAK","updated_at":"2026-09-23T09:00:19.177377Z"}}